TimePDT,TemperatureF,Dew PointF,Humidity,Sea Level PressureIn,VisibilityMPH,Wind Direction,Wind SpeedMPH,Gust SpeedMPH,PrecipitationIn,Events,Conditions,WindDirDegrees,DateUTC
12:53 AM,45.0,39.0,80,30.21,10.0,East,3.5,-,N/A,,Clear,90,2013-10-22 07:53:00
1:53 AM,45.0,41.0,86,30.21,10.0,ENE,4.6,-,N/A,,Clear,70,2013-10-22 08:53:00
2:53 AM,43.0,39.9,89,30.20,10.0,ENE,4.6,-,N/A,,Partly Cloudy,60,2013-10-22 09:53:00
3:53 AM,42.1,39.9,92,30.19,10.0,NE,4.6,-,N/A,,Partly Cloudy,50,2013-10-22 10:53:00
4:53 AM,39.9,37.9,93,30.20,10.0,NNE,4.6,-,N/A,,Partly Cloudy,30,2013-10-22 11:53:00
5:30 AM,39.2,39.2,100,30.20,1.5,ENE,5.8,-,N/A,,Clear,60,2013-10-22 12:30:00
5:31 AM,39.2,39.2,100,30.20,1.0,ENE,5.8,-,N/A,,Partly Cloudy,60,2013-10-22 12:31:00
5:53 AM,39.9,39.0,97,30.21,0.2,ENE,8.1,-,N/A,Fog,Fog,70,2013-10-22 12:53:00
6:53 AM,39.9,39.0,97,30.21,0.2,ENE,6.9,-,N/A,Fog,Fog,60,2013-10-22 13:53:00
7:53 AM,39.0,39.0,100,30.25,0.1,NE,6.9,-,N/A,Fog,Fog,50,2013-10-22 14:53:00
8:53 AM,41.0,39.9,96,30.25,0.1,ENE,5.8,-,N/A,Fog,Fog,70,2013-10-22 15:53:00
9:53 AM,42.1,41.0,96,30.26,0.1,NE,8.1,-,N/A,Fog,Fog,40,2013-10-22 16:53:00
10:25 AM,42.8,42.8,100,30.22,0.2,NE,5.8,-,N/A,Fog,Fog,50,2013-10-22 17:25:00
10:53 AM,43.0,42.1,97,30.25,0.5,NE,5.8,-,N/A,Fog,Fog,40,2013-10-22 17:53:00
11:28 AM,44.6,42.8,93,30.21,2.0,NE,5.8,-,N/A,,Overcast,40,2013-10-22 18:28:00
11:43 AM,44.6,42.8,93,30.21,5.0,NE,5.8,-,N/A,,Mostly Cloudy,40,2013-10-22 18:43:00
11:53 AM,46.9,43.0,86,30.23,6.0,ENE,5.8,-,N/A,,Scattered Clouds,60,2013-10-22 18:53:00
12:53 PM,53.1,43.0,69,30.20,10.0,NE,3.5,-,N/A,,Clear,40,2013-10-22 19:53:00
1:53 PM,57.9,43.0,58,30.17,10.0,NE,4.6,-,N/A,,Clear,50,2013-10-22 20:53:00
2:53 PM,61.0,43.0,52,30.16,10.0,NE,4.6,-,N/A,,Clear,50,2013-10-22 21:53:00
3:53 PM,62.1,42.1,48,30.15,10.0,ENE,3.5,-,N/A,,Clear,70,2013-10-22 22:53:00
4:53 PM,62.1,42.1,48,30.14,10.0,NE,3.5,-,N/A,,Clear,50,2013-10-22 23:53:00
5:53 PM,57.0,42.1,57,30.14,10.0,NNE,3.5,-,N/A,,Clear,30,2013-10-23 00:53:00
6:53 PM,54.0,41.0,62,30.14,10.0,Calm,Calm,-,N/A,,Clear,0,2013-10-23 01:53:00
7:53 PM,51.1,41.0,68,30.15,10.0,Calm,Calm,-,N/A,,Clear,0,2013-10-23 02:53:00
8:53 PM,46.0,37.0,71,30.15,10.0,Calm,Calm,-,N/A,,Clear,0,2013-10-23 03:53:00
9:53 PM,50.0,43.0,77,30.15,10.0,ENE,5.8,-,N/A,,Clear,60,2013-10-23 04:53:00
10:53 PM,46.9,43.0,86,30.16,10.0,NE,5.8,-,N/A,,Clear,50,2013-10-23 05:53:00
11:53 PM,46.0,42.1,86,30.16,10.0,NE,6.9,-,N/A,,Partly Cloudy,50,2013-10-23 06:53:00